Location: Fond Mahaut
(18.0707°N, 63.0465°W)
Time: 00:16:09
(UTC+00:00)

IRIDIUM 114 - Pass Details

Date: 08 December 2019
Orbit: 776 x 779 km, 86.4° (Epoch: 27 January)

Event Time Altitude Azimuth Distance (km) Brightness Sun altitude
Rises 23:14:03 0° 179° (S) 3,246 7.8 -22.5°
Reaches altitude 10° 23:16:23 10° 179° (S) 2,320 7.0 -23.1°
Maximum altitude 23:21:36 88° 90° (E) 782 4.2 -24.2°
Enters shadow 23:23:41 38° 2° (N) 1,180 5.1 -24.7°
